#timestamp,LO_Frequency,Hit,StdDev 
1562464815.1,286047001.2,N
1562464816.0,286047001.2,N
1562464835.8,286047000.7,N
1562464855.6,286047000.9,N
1562464875.5,286047000.8,N
1562464895.3,286046999.3,N
1562464915.2,286046999.0,N
1562464935.9,286046999.6,N
1562464955.7,286046996.6,Y
1562464975.6,286046998.3,P
1562464995.4,286047000.8,N
1562465015.3,286047001.2,N
1562465035.1,286046999.2,N
1562465036.0,286046999.2,N
1562465055.8,286046996.5,Y
1562465075.7,286046998.4,P
1562465095.5,286047000.9,N
1562465115.3,286046998.2,N
1562465135.2,286046998.7,N
1562465155.0,286046998.3,N
1562465155.9,286046998.3,N
1562465175.8,286046998.2,N
1562465195.6,286046998.2,N
1562465215.4,286047000.4,N
1562465235.3,286046999.7,N
1562465255.1,286047000.0,N
1562465275.9,286046998.1,N
1562465295.7,286046998.5,N
1562465315.5,286047001.2,N
1562465335.4,286047000.3,N
1562465355.2,286046999.7,N
1562465375.0,286047002.8,N
1562465375.9,286047002.8,N
1562465395.8,286046999.7,N
1562465445.7,286047001.1,E
1562465455.6,286047000.6,N
1562465475.4,286047001.2,P
1562465495.2,286046998.2,P
1562465515.1,286047000.6,N
1562465516.0,286047000.6,N
1562465535.8,286047000.9,N
1562465555.7,286047000.3,N
1562465575.5,286047001.1,N
1562465595.3,286046998.6,N
1562465615.2,286046998.8,N
1562465635.0,286046998.9,N
1562465635.9,286046998.9,N
1562465655.8,286046999.6,N
1562465675.6,286046998.2,N
1562465695.4,286047001.2,N
1562465715.3,286047001.2,N
1562465735.1,286046998.4,N
1562465755.8,286046998.8,N
1562465775.7,286046998.8,N
1562465795.5,286046998.8,N
1562465815.3,286046998.3,N
1562465835.2,286046998.8,N
1562465855.0,286046998.9,N
1562465855.9,286046998.9,N
1562465875.8,286046998.6,N
1562465895.6,286046998.8,N
1562465915.4,286046998.7,N
1562465935.3,286046998.4,N
1562465955.1,286046998.6,N
1562465975.9,286046999.0,N
1562465995.7,286046998.7,N
1562466015.5,286046999.0,N
1562466035.4,286046999.3,N
1562466055.2,286046998.1,N
1562466075.0,286046998.6,N
1562466075.9,286046998.6,N
1562466095.8,286047000.6,N
1562466115.6,286047001.2,N
1562466135.5,286047000.5,N
1562466155.3,286046998.5,N
1562466175.1,286047000.8,N
1562466195.9,286046998.9,N
1562466215.7,286046999.2,N
1562466235.5,286046998.6,N
1562466255.4,286047000.6,N
1562466275.2,286046998.1,N
1562466295.1,286046998.2,N
1562466296.0,286046998.2,N
1562466315.8,286047001.0,N
1562466335.6,286047000.7,N
1562466355.5,286047002.4,N
1562466375.3,286047002.7,N
1562466395.1,286047000.6,N
1562466415.9,286047000.2,N
1562466435.7,286047000.6,N
1562466455.6,286047001.2,N
1562466475.4,286047000.6,N
1562466495.2,286047000.6,N
1562466515.1,286046998.1,N
1562466516.0,286046998.1,N
1562466535.8,286046998.1,N
1562466555.7,286046999.8,N
1562466575.5,286046999.7,N
1562466595.3,286047000.6,N
1562466615.2,286047001.0,N
1562466635.9,286046998.1,N
1562466655.7,286047001.1,N
1562466675.6,286047000.6,N
1562466695.4,286046999.9,N
1562466715.2,286046999.7,N
1562466735.1,286047002.2,N
1562466736.0,286047002.2,N
1562466755.8,286047002.0,N
1562466775.7,286047002.5,N
1562466795.5,286047002.5,N
1562466815.3,286047002.7,N
1562466835.2,286046999.8,N
1562466855.0,286047001.9,N
1562466855.9,286047001.9,N
1562466875.8,286047001.6,N
1562466895.6,286047002.7,N
1562466915.4,286046999.8,N
1562466935.3,286047001.9,N
1562466955.1,286047002.1,N
1562466975.8,286047002.2,N
1562466995.7,286047001.9,N
1562467015.5,286047004.3,N
1562467035.4,286047003.6,N
1562467055.2,286047003.5,N
1562467075.0,286047003.0,N
1562467075.9,286047003.0,N
1562467125.8,286047004.2,E
1562467135.7,286047002.3,N
1562467155.6,286046996.7,P
1562467175.4,286046997.2,N
1562467195.2,286046997.7,N
1562467215.1,286046997.9,N
1562467216.0,286046997.9,N
1562467235.8,286046996.0,N
1562467255.7,286046996.1,N
1562467275.5,286046996.0,N
1562467295.3,286046994.1,Y
1562467315.2,286046995.0,P
1562467335.0,286046997.8,N
1562467335.9,286046997.8,N
1562467355.7,286046999.2,N
1562467375.6,286046999.3,N
1562467395.4,286046999.0,N
1562467415.3,286046998.2,N
1562467435.1,286046998.7,N
1562467455.8,286046998.8,N
1562467475.7,286046998.2,N
1562467495.5,286047000.1,N
1562467515.3,286046999.9,N
1562467535.2,286046998.4,N
1562467555.0,286046998.6,N
1562467555.9,286046998.6,N
1562467575.8,286046999.0,N
1562467595.6,286046998.4,N
1562467615.4,286047000.8,N
1562467635.3,286046998.5,N
1562467655.1,286046999.3,N
1562467675.9,286046996.6,Y
1562467695.7,286046999.3,P
1562467715.5,286046996.5,P
1562467735.4,286046998.6,N
1562467755.2,286046998.4,N
1562467775.0,286046998.7,N
1562467775.9,286046998.7,N
1562467795.8,286046999.4,N
1562467815.6,286046998.7,N
1562467835.5,286046998.9,N
1562467855.3,286047001.0,N
1562467875.1,286047000.1,N
1562467895.9,286047000.0,N
1562467915.7,286047001.0,N
1562467935.5,286047000.4,N
1562467955.4,286047001.0,N
1562467975.2,286046998.2,N
1562467995.1,286046999.4,N
1562467996.0,286046999.4,N
1562468015.8,286046999.0,N
1562468035.6,286047001.1,N
1562468055.5,286046998.4,N
1562468075.3,286046998.9,N
1562468095.1,286046998.7,N
1562468115.9,286046999.4,N
1562468135.7,286046999.3,N
1562468155.6,286046996.8,Y
1562468175.4,286046999.3,P
1562468195.2,286046996.6,P
1562468215.1,286046997.4,N
1562468216.0,286046997.4,N
1562468235.8,286046999.3,N
1562468255.6,286047000.0,N
1562468275.5,286047001.2,N
1562468295.3,286047001.1,N
1562468315.2,286047000.5,N
1562468335.9,286047000.5,N
1562468355.7,286046998.1,N
1562468375.6,286047001.2,N
1562468395.4,286046998.6,N
